Location: Guilderland
(42.7045°N, 73.9115°W)
Time: 14:57:05
(UTC+00:00)

Cosmos 1242 Rocket - Pass Details

Date: 24 January 2020
Orbit: 449 x 487 km, 81.2° (Epoch: 22 February)

Event Time Altitude Azimuth Distance (km) Brightness Sun altitude
Rises 22:30:38 0° 210° (SSW) 2,468 7.0 -6.4°
Reaches altitude 10° 22:32:50 10° 220° (SW) 1,606 6.3 -6.7°
Maximum altitude 22:36:01 32° 285° (WNW) 830 4.4 -7.3°
Drops below altitude 10° 22:39:16 10° 350° (N) 1,639 5.2 -7.8°
Sets 22:41:32 0° 1° (N) 2,529 6.0 -8.2°
